Date,TemperatureHighF,TemperatureAvgF,TemperatureLowF,DewpointHighF,DewpointAvgF,DewpointLowF,HumidityHigh,HumidityAvg,HumidityLow,PressureMaxIn,PressureMinIn,WindSpeedMaxMPH,WindSpeedAvgMPH,GustSpeedMaxMPH,PrecipitationSumIn
2013-2-1,69.4,49.6,34.3,47.9,40.6,32.2,93,74,43,30.10,30.00,7,0,9,0.00
2013-2-2,59.6,46.8,40.1,48.2,42.3,37.2,94,85,65,30.20,30.10,9,0,12,0.00
2013-2-3,60.9,48.4,39.1,47.4,42.7,36.5,94,82,58,30.14,30.03,8,1,10,0.01
2013-2-4,55.1,45.0,38.8,46.9,41.4,36.8,94,88,71,30.07,29.96,7,1,9,0.00
2013-2-5,60.9,49.0,40.1,46.3,42.5,36.5,90,79,54,30.05,29.93,12,1,15,0.01
2013-2-6,59.5,45.3,34.0,43.1,37.1,31.4,91,75,45,30.10,29.99,11,1,12,0.01
2013-2-7,55.6,46.7,37.6,45.7,38.5,30.1,93,76,40,30.05,29.88,14,2,17,0.14
2013-2-8,59.0,44.6,33.4,36.1,33.5,25.6,92,69,28,29.92,29.82,14,2,18,0.01
2013-2-9,62.3,44.0,31.6,34.1,29.7,21.4,87,61,21,29.99,29.90,13,1,14,0.00
2013-2-10,64.7,43.9,30.3,45.2,33.1,26.3,87,68,32,30.01,29.90,10,1,14,0.00
2013-2-11,68.3,48.3,34.1,38.9,33.2,26.9,84,61,23,30.12,29.98,12,1,12,0.00
2013-2-12,62.6,45.2,32.1,45.8,37.6,29.2,90,76,46,30.25,30.12,9,1,9,0.00
2013-2-13,65.2,46.7,32.9,44.3,37.8,30.3,92,73,42,30.23,30.10,11,1,12,0.01
2013-2-14,70.8,50.5,36.3,47.9,40.2,33.6,91,71,40,30.14,30.04,11,1,12,0.00
2013-2-15,72.3,52.2,35.8,45.7,40.1,33.1,90,67,35,30.16,30.09,9,0,11,0.00
2013-2-16,71.8,51.1,38.6,46.4,40.3,35.6,90,71,30,30.13,29.94,9,1,10,0.00
2013-2-17,63.4,46.6,33.8,43.2,37.0,31.2,92,72,38,29.94,29.86,10,1,11,0.00
2013-2-18,53.8,43.9,35.6,40.8,36.8,31.8,89,77,61,29.92,29.81,14,1,14,0.00
2013-2-19,49.5,42.2,33.5,41.4,34.6,27.6,92,76,45,29.85,29.63,14,2,18,0.17
2013-2-20,59.9,44.5,29.8,35.7,31.5,26.9,90,64,30,29.95,29.75,13,2,15,0.01
2013-2-21,63.4,48.7,33.7,37.3,32.6,24.9,85,58,23,30.06,29.95,14,1,15,0.00
2013-2-22,63.4,48.8,35.9,44.2,37.4,29.7,84,67,31,30.14,30.05,11,1,14,0.00
2013-2-23,59.8,49.6,39.8,41.4,32.8,24.3,88,56,27,30.16,30.06,14,2,17,0.00
2013-2-24,68.8,48.7,32.8,35.0,29.9,17.6,81,53,16,30.15,30.04,13,1,14,0.00
2013-2-25,70.1,49.0,35.0,42.7,34.9,17.7,86,63,15,30.15,30.03,10,1,16,0.00
2013-2-26,71.1,49.0,32.8,38.9,32.2,23.4,86,59,18,30.11,30.02,12,1,15,0.00
2013-2-27,69.1,50.4,34.0,43.7,35.8,27.4,85,61,27,30.25,30.10,11,1,13,0.00
2013-2-28,69.3,55.2,44.5,52.6,46.8,41.0,89,75,53,30.33,30.24,11,1,14,0.00